[[{"header":{"parameterUnit":"m.s-1","parameterCategory":1,"la1":30.2991,"la2":30.254,"lo1":-89.0895,"lo2":-89.0444,"dy":0.0017,"dx":0.0017,"nx":28,"ny":28,"refTime":"2025-04-11T03:00:00:Z","depth":0,"parameterNumber":2,"parameterNumberName":"U-component_of_WINDS"},"data":[0,0,0,0,0,0,0,0,0,0,0,0,0,0,0,0,0,0,0,0,0,0,0,0,0,0,0,0,0,0,0,0,0,0,0,0,0,0,0,0,0,0,0,0,0,0,0,0,0,0,0,0,0,0,0,0,0,0,2.6818,2.6819,0,2.6909,2.691,2.6911,2.6878,2.6876,2.6874,2.6872,2.6967,2.6972,2.6976,0,0,0,0,0,0,0,0,0,0,0,0,0,2.6621,2.6625,2.6818,2.6819,2.6821,2.6908,2.691,2.6911,2.6878,2.6876,2.6873,2.6871,2.6966,2.6971,2.6976,0,0,0,0,0,0,0,0,0,0,0,0,0,2.6708,2.6626,2.6818,2.6815,2.6815,2.6908,2.691,2.6911,2.6879,2.6876,2.6873,2.687,2.6964,2.6971,2.6977,2.7079,0,0,2.6997,2.7,0,0,0,0,0,0,0,0,2.6703,2.6716,2.6814,2.6815,2.6816,2.6879,2.6875,2.6968,2.688,2.6855,2.6872,2.6868,2.6941,2.6949,2.6973,2.7084,2.7088,2.6998,2.7002,2.7005,2.7007,0,0,0,0,0,0,0,2.6697,2.6712,2.6854,2.6816,2.6817,2.681,2.6819,2.6892,2.6914,2.6857,2.6855,2.6866,2.694,2.6966,2.6975,2.7089,2.6998,2.7004,2.7008,2.701,2.7288,2.7292,0,0,0,0,0,0,2.6691,2.6707,2.6851,2.6857,2.6751,2.6816,2.6826,2.6862,2.6913,2.6918,2.6868,2.6864,2.6956,2.6967,2.6978,2.7099,2.7005,2.7011,2.7015,2.7285,2.7289,2.7293,0,0,0,0,0,0,2.6686,2.6704,2.6848,2.6781,2.6799,2.6822,2.6863,2.6865,2.6891,2.6921,2.6925,2.689,2.6954,2.6969,2.7054,2.7102,2.7014,2.702,2.7281,2.7286,2.7291,2.7344,0,0,0,0,0,0,2.6681,2.6702,2.6741,2.6782,2.6803,2.6921,2.6866,2.6869,2.6902,2.6897,2.6943,2.6948,2.6953,2.7044,2.7061,2.711,2.7025,2.7277,2.7283,2.7289,2.7338,2.735,2.7361,0,0,0,0,0,2.6674,2.6753,2.6743,2.676,2.6851,2.6924,2.6936,2.6939,2.6906,2.6945,2.6965,2.6947,2.7095,2.7053,2.7071,2.7123,2.7274,2.7281,2.7289,2.7333,2.7348,2.736,0,0,0,0,0,0,2.6717,2.6758,2.6747,2.6842,2.688,2.6918,2.6967,2.6955,2.7004,2.6997,2.7001,2.7011,2.7099,2.712,2.7073,2.7225,2.7179,2.7191,2.7207,2.7221,2.7232,2.7224,2.7031,0,0,0,0,0,2.6737,2.6792,2.6826,2.6906,2.6926,2.6944,2.6976,2.6975,2.7015,2.7031,2.7057,2.7096,2.7152,2.7188,2.7241,2.7342,2.7351,2.7387,2.7398,2.7408,2.7417,2.747,2.7486,2.7318,2.7318,2.7318,0,0,2.678,2.6809,2.6844,2.6916,2.6945,2.7002,2.6957,2.702,2.7063,2.7041,2.7121,2.7143,2.7188,2.7281,2.7323,2.7301,2.7466,2.7417,2.7424,2.7428,2.748,2.7495,2.751,2.7323,2.7322,2.7321,0,0,2.6886,2.6915,2.6984,2.7014,2.7058,2.707,2.7087,2.7128,2.714,2.7222,2.7206,2.7258,2.7354,2.7386,2.7415,2.7535,2.752,2.7553,2.7611,2.7663,2.7676,2.7688,2.7729,2.7744,2.7563,2.7563,2.7563,0,2.6933,2.7018,2.7021,2.7085,2.7117,2.7099,2.7169,2.7199,2.7259,2.7282,2.7257,2.7376,2.7405,2.7505,2.7534,2.7559,2.7578,2.7546,2.7674,2.7686,2.7697,2.7736,2.7751,2.7566,2.7566,2.7565,2.7565,0,2.7073,2.7132,2.7183,2.724,2.7278,2.7345,2.7359,2.7397,2.7395,2.7409,2.7493,2.7527,2.7586,2.7611,2.7609,2.7711,2.7695,2.7673,2.7627,2.7716,2.7753,2.7768,2.7571,2.757,2.7569,2.7568,0,0,2.7205,2.7264,2.7282,2.7307,2.7356,2.7403,2.747,2.7526,2.7558,2.7602,2.7657,2.7739,2.7718,2.7751,2.7754,2.78,2.789,2.7772,2.7773,2.779,2.8002,2.8016,2.8034,2.7882,2.7885,2.7887,2.7998,0,2.7313,2.7428,2.7434,2.7539,2.7593,2.7579,2.7637,2.7673,2.769,2.7739,2.7758,2.7814,2.7784,2.7803,2.7849,2.787,2.7933,2.7862,2.7933,2.7935,2.7918,2.8053,2.8068,2.817,2.8012,2.8015,2.8016,0,2.7453,2.7499,2.7609,2.765,2.7673,2.7725,2.7777,2.7825,2.7867,2.7875,2.7912,2.7908,2.7977,2.7932,2.8026,2.7978,2.8008,2.8023,2.8027,2.8031,2.7978,2.8058,2.8203,2.8217,2.8039,2.8037,2.8036,0,2.7535,2.7625,2.7702,2.7725,2.7775,2.7811,2.7834,2.7873,2.7907,2.7954,2.7976,2.8031,2.806,2.8103,2.8114,2.808,2.8208,2.8164,2.8217,2.8216,2.8241,2.8239,2.839,2.8266,2.8266,2.8266,2.8265,0,2.7652,2.772,2.7739,2.7786,2.7861,2.7869,2.7943,2.7964,2.7999,2.805,2.8043,2.8091,2.8104,2.8156,2.8166,2.8241,2.8256,2.8264,2.8265,2.8263,2.8261,2.828,2.8272,2.827,2.8269,2.8268,2.8267,0,2.7755,2.7771,2.7853,2.7895,2.7907,2.796,2.7995,2.8041,2.8057,2.8122,2.8138,2.8163,2.8223,2.8239,2.8312,2.8318,2.8407,2.8403,2.8392,2.8391,2.8441,2.8435,2.8607,2.8629,2.8494,2.8495,2.8496,0,2.7826,2.7878,2.7924,2.7958,2.7982,2.8036,2.807,2.8081,2.8117,2.8169,2.8208,2.8267,2.8314,2.8411,2.8436,2.8492,2.8487,2.8544,2.8496,2.8491,2.8485,2.848,2.8485,2.8552,2.8554,2.8555,2.8556,0,2.7952,2.7957,2.8007,2.8059,2.81,2.8143,2.8183,2.8211,2.8227,2.8269,2.8329,2.8366,2.844,2.8498,2.8554,2.8579,2.857,2.8572,2.8586,2.8582,2.8572,2.8575,2.8413,2.8567,2.8565,2.8565,2.8564,2.8564,2.8039,2.8083,2.8123,2.8178,2.821,2.8248,2.8292,2.8314,2.8365,2.8424,2.8428,2.8494,2.8536,2.861,2.8638,2.8689,2.8672,2.8694,2.8699,2.8703,2.8706,2.8567,2.87,2.87,2.87,2.87,2.8699,0,2.8161,2.8186,2.8237,2.8293,2.8337,2.8326,2.8371,2.8408,2.8465,2.8505,2.8551,2.8621,2.8678,2.8709,2.8766,2.8801,2.8799,2.8816,2.8811,2.8817,2.872,2.87,2.8817,2.8817,2.8817,2.8817,2.8816,2.8816,2.8229,2.8303,2.8314,2.8404,2.8429,2.8492,2.8518,2.8554,2.8585,2.8663,2.871,2.8729,2.8765,2.8825,2.8877,2.8884,2.8904,2.8923,2.8928,2.8836,2.8824,2.8812,2.8793,2.8928,2.8928,2.9021,2.9021,2.9022]},{"header":{"parameterUnit":"m.s-1","parameterCategory":1,"la1":30.2991,"la2":30.254,"lo1":-89.0895,"lo2":-89.0444,"dy":0.0017,"dx":0.0017,"nx":28,"ny":28,"refTime":"2025-04-11T03:00:00:Z","depth":0,"parameterNumber":3,"parameterNumberName":"V-component_of_WINDS"},"data":[0,0,0,0,0,0,0,0,0,0,0,0,0,0,0,0,0,0,0,0,0,0,0,0,0,0,0,0,0,0,0,0,0,0,0,0,0,0,0,0,0,0,0,0,0,0,0,0,0,0,0,0,0,0,0,0,0,0,4.9598,4.96,0,4.9792,4.9794,4.9796,4.9819,4.9817,4.9815,4.9813,5.0,5.0006,5.0013,0,0,0,0,0,0,0,0,0,0,0,0,0,4.9235,4.9242,4.9598,4.96,4.9603,4.9792,4.9794,4.9797,4.9819,4.9817,4.9814,4.9812,4.9997,5.0005,5.0013,0,0,0,0,0,0,0,0,0,0,0,0,0,4.9407,4.9244,4.9597,4.9637,4.9642,4.9791,4.9794,4.9798,4.9819,4.9816,4.9814,4.9811,4.9995,5.0005,5.0015,5.0134,0,0,5.0045,5.005,0,0,0,0,0,0,0,0,4.9397,4.942,4.9629,4.9634,4.9641,4.9778,4.9735,4.991,4.982,4.9752,4.9813,4.981,4.9928,4.9943,4.9985,5.0143,5.0151,5.0046,5.0053,5.0057,5.006,0,0,0,0,0,0,0,4.9385,4.9412,4.9674,4.9631,4.9639,4.9641,4.9662,4.9768,4.9853,4.9757,4.976,4.9783,4.993,4.9975,4.999,5.0154,5.0046,5.0055,5.0061,5.0065,5.0418,5.0422,0,0,0,0,0,0,4.9368,4.9402,4.9668,4.968,4.951,4.965,4.9674,4.9737,4.9852,4.9867,4.9785,4.9783,4.996,4.9978,4.9996,5.0144,5.0057,5.0066,5.0072,5.0415,5.0419,5.0423,0,0,0,0,0,0,4.936,4.9391,4.966,4.9542,4.9576,4.9659,4.973,4.9742,4.9788,4.9873,4.9887,4.9817,4.9958,4.9982,5.0101,5.0151,5.0071,5.008,5.0411,5.0416,5.0421,5.0441,0,0,0,0,0,0,4.9349,4.9388,4.9437,4.9543,4.9583,4.9765,4.9733,4.9748,4.9806,4.9806,4.9906,4.992,4.9958,5.0085,5.0111,5.0164,5.0088,5.0407,5.0413,5.0419,5.0436,5.0446,5.0454,0,0,0,0,0,4.9336,4.9432,4.944,4.9472,4.9646,4.9767,4.979,4.9835,4.981,4.9859,4.9913,4.9917,5.0142,5.0097,5.0126,5.0183,5.0404,5.0412,5.0419,5.0432,5.0444,5.0454,0,0,0,0,0,0,4.9326,4.9447,4.9456,4.959,4.9669,4.9771,4.9833,4.9846,4.993,4.9925,4.9974,4.9996,5.0113,5.0159,5.0108,5.0304,5.027,5.0283,5.027,5.0282,5.0291,5.0277,5.0096,0,0,0,0,0,4.934,4.9432,4.9531,4.9639,4.9679,4.9749,4.9804,4.9832,4.9914,4.9946,5.001,5.0086,5.0174,5.023,5.0316,5.0443,5.0464,5.0495,5.0504,5.0512,5.0522,5.0593,5.0608,5.0447,5.0447,5.0447,0,0,4.9368,4.9445,4.95,4.9639,4.9704,4.9795,4.9777,4.9874,4.9941,4.996,5.0077,5.0126,5.0213,5.0337,5.0394,5.0379,5.0572,5.0521,5.0526,5.0533,5.0602,5.0617,5.0631,5.0452,5.0451,5.0451,0,0,4.9466,4.9535,4.9633,4.9699,4.9799,4.9845,4.9869,4.997,5.0005,5.0124,5.014,5.0218,5.0369,5.0431,5.0482,5.0606,5.0612,5.0632,5.0679,5.0747,5.076,5.0771,5.0815,5.083,5.0642,5.0642,5.0642,0,4.9487,4.963,4.9681,4.9779,4.9839,4.9864,4.9962,5.0022,5.0143,5.0182,5.0164,5.0355,5.0416,5.0554,5.0585,5.0625,5.0652,5.062,5.0755,5.0767,5.0778,5.082,5.0837,5.0644,5.0644,5.0644,5.0644,0,4.9651,4.9749,4.9816,4.9937,5.0004,5.0101,5.0164,5.0225,5.0248,5.0295,5.0415,5.0489,5.0591,5.0626,5.0646,5.0767,5.0755,5.0745,5.0712,5.0794,5.0835,5.0851,5.0647,5.0646,5.0646,5.0645,0,0,4.9747,4.9897,4.9921,4.9976,5.0088,5.0163,5.0261,5.0364,5.0416,5.0497,5.0579,5.0707,5.07,5.0758,5.0786,5.0845,5.0938,5.0829,5.0831,5.0846,5.1075,5.1082,5.11,5.0943,5.0947,5.0949,5.1068,0,4.9858,5.0038,5.0087,5.0237,5.0328,5.0353,5.0438,5.0514,5.0561,5.0641,5.0691,5.0781,5.0765,5.08,5.0861,5.0914,5.0985,5.0906,5.1017,5.102,5.0995,5.1121,5.1128,5.1237,5.1084,5.1087,5.1089,0,5.0012,5.0102,5.0263,5.0365,5.0405,5.0481,5.058,5.0658,5.0744,5.0773,5.084,5.0863,5.0962,5.0924,5.106,5.1006,5.1053,5.1086,5.1092,5.1103,5.1059,5.1136,5.1273,5.1289,5.1114,5.1112,5.111,0,5.0066,5.0227,5.0345,5.0391,5.0513,5.0566,5.0618,5.0702,5.0761,5.0846,5.0885,5.0978,5.1029,5.11,5.1146,5.1115,5.1279,5.1244,5.1304,5.1303,5.1337,5.1334,5.1483,5.1368,5.1367,5.1367,5.1367,0,5.0185,5.0282,5.0371,5.0443,5.0552,5.0606,5.0711,5.0764,5.0838,5.0918,5.0944,5.1018,5.1076,5.1156,5.1193,5.13,5.1322,5.1347,5.1355,5.1345,5.1342,5.1377,5.137,5.1372,5.1371,5.137,5.1369,0,5.0263,5.0327,5.0457,5.0563,5.0592,5.0668,5.0756,5.0826,5.0874,5.0975,5.1002,5.1076,5.1173,5.1227,5.1347,5.1371,5.1491,5.1495,5.1463,5.1467,5.1524,5.1518,5.17,5.1727,5.1593,5.1595,5.1596,0,5.0335,5.0411,5.0527,5.0585,5.064,5.0732,5.0794,5.0849,5.0912,5.1017,5.1073,5.1172,5.1255,5.1407,5.147,5.1561,5.1568,5.1626,5.1582,5.1569,5.1569,5.1564,5.1572,5.1633,5.1634,5.1635,5.1636,0,5.0455,5.0484,5.0575,5.0678,5.0752,5.0834,5.0915,5.096,5.1028,5.1096,5.1199,5.1263,5.1388,5.1485,5.1583,5.1632,5.1645,5.165,5.1668,5.1658,5.1637,5.1649,5.1484,5.1645,5.1644,5.1643,5.1643,5.1642,5.0533,5.0602,5.0696,5.0796,5.0864,5.0939,5.1011,5.107,5.1157,5.1267,5.1293,5.1399,5.1482,5.1616,5.1668,5.175,5.1739,5.1765,5.1772,5.1778,5.1781,5.1624,5.1767,5.1767,5.1767,5.1767,5.1767,0,5.0654,5.0717,5.0809,5.0924,5.1003,5.1013,5.1103,5.1167,5.1263,5.1341,5.1423,5.154,5.1635,5.1706,5.1802,5.1854,5.1862,5.1877,5.1874,5.1885,5.1785,5.1759,5.1869,5.1869,5.1869,5.1869,5.1869,5.1869,5.0727,5.0846,5.0886,5.1037,5.1097,5.1207,5.1257,5.1326,5.139,5.1521,5.1602,5.1649,5.1724,5.1827,5.1913,5.1931,5.1965,5.198,5.1998,5.1903,5.1892,5.1881,5.1858,5.1987,5.1987,5.2092,5.2093,5.2094]}]]